Check out our new BloomSky Weather System.

Active alerts


No alerts


Thunder radar  blitzortung!


Rain radar more information rain snow radar


Visit our other weather sites:

Template documentation
and downloads

And another site



Weather Underground History page Text

Daily Summary for April 28, 2017 Units:  Metric    English   Both
« Previous Day
Next Day »
Daily Weekly Monthly Yearly Custom
  High: Low: Average:
Temperature: 32.7 °C 22.4 °C 27.6 °C
Dew Point: 25 °C 19.8 °C 23.4 °C
Humidity: 90 % 61 % 79 %
Wind Speed: 24.1 km/h 1.6 km/h 11.4 km/h
Wind Gust: 35.4 km/h - -
Wind:- - SSE
Pressure: 1005 hPa 1001.9 hPa -
Precipitation: 0 mm    
Historical Graphs
 
 
Tabular Data for April 28, 2017
Time Temperature Dew Point Pressure Wind Wind Speed Wind Gust Humidity Rainfall Rate (Hourly)
00:02 22.4 °C 19.8 °C 1004.3 hPa ESE 8 km/h 16.1 km/h 85 % 0 mm
00:07 22.4 °C 19.8 °C 1003.9 hPa ESE 6.4 km/h 12.9 km/h 85 % 0 mm
00:12 22.5 °C 19.9 °C 1004.3 hPa ESE 9.7 km/h 14.5 km/h 85 % 0 mm
00:17 22.6 °C 19.9 °C 1004.3 hPa South 4.8 km/h 16.1 km/h 85 % 0 mm
00:22 22.6 °C 19.9 °C 1003.9 hPa SSW 8 km/h 16.1 km/h 85 % 0 mm
00:27 22.7 °C 20 °C 1003.9 hPa SSE 6.4 km/h 16.1 km/h 85 % 0 mm
00:32 22.7 °C 20 °C 1003.9 hPa SSW 4.8 km/h 12.9 km/h 85 % 0 mm
00:37 22.8 °C 20.3 °C 1003.9 hPa SSE 9.7 km/h 12.9 km/h 86 % 0 mm
00:42 22.8 °C 20.3 °C 1003.9 hPa East 8 km/h 12.9 km/h 86 % 0 mm
00:47 22.9 °C 20.4 °C 1003.9 hPa SE 6.4 km/h 12.9 km/h 86 % 0 mm
00:52 22.9 °C 20.4 °C 1003.9 hPa SSE 6.4 km/h 12.9 km/h 86 % 0 mm
00:57 22.9 °C 20.4 °C 1003.9 hPa ESE 1.6 km/h 12.9 km/h 86 % 0 mm
01:02 22.9 °C 20.4 °C 1003.9 hPa SE 4.8 km/h 9.7 km/h 86 % 0 mm
01:07 22.9 °C 20.4 °C 1003.9 hPa SE 4.8 km/h 9.7 km/h 86 % 0 mm
01:12 22.9 °C 20.4 °C 1003.9 hPa SSE 3.2 km/h 9.7 km/h 86 % 0 mm
01:15 23 °C 20.5 °C 1003.6 hPa ESE 3.2 km/h 9.7 km/h 86 % 0 mm
01:20 23 °C 20.5 °C 1003.6 hPa ESE 3.2 km/h 9.7 km/h 86 % 0 mm
01:25 23.1 °C 20.6 °C 1003.6 hPa SE 4.8 km/h 9.7 km/h 86 % 0 mm
01:30 23.1 °C 20.6 °C 1003.6 hPa SE 4.8 km/h 9.7 km/h 86 % 0 mm
01:35 23.1 °C 20.6 °C 1003.3 hPa South 3.2 km/h 9.7 km/h 86 % 0 mm
01:40 23.2 °C 20.9 °C 1003.3 hPa ESE 4.8 km/h 12.9 km/h 87 % 0 mm
01:45 23.2 °C 20.9 °C 1003.3 hPa SE 3.2 km/h 12.9 km/h 87 % 0 mm
01:50 23.3 °C 21 °C 1003.3 hPa SSE 4.8 km/h 12.9 km/h 87 % 0 mm
01:55 23.3 °C 21 °C 1002.9 hPa SE 3.2 km/h 8 km/h 87 % 0 mm
02:00 23.3 °C 21 °C 1002.9 hPa ESE 6.4 km/h 8 km/h 87 % 0 mm
02:05 23.3 °C 21 °C 1002.9 hPa ESE 4.8 km/h 11.3 km/h 87 % 0 mm
02:10 23.4 °C 21.3 °C 1002.9 hPa SE 4.8 km/h 11.3 km/h 88 % 0 mm
02:15 23.4 °C 21.3 °C 1002.9 hPa SSE 6.4 km/h 11.3 km/h 88 % 0 mm
02:20 23.5 °C 21.4 °C 1002.9 hPa ESE 4.8 km/h 9.7 km/h 88 % 0 mm
02:25 23.5 °C 21.4 °C 1002.9 hPa SSE 4.8 km/h 9.7 km/h 88 % 0 mm
02:30 23.6 °C 21.5 °C 1002.9 hPa SSE 3.2 km/h 9.7 km/h 88 % 0 mm
02:35 23.6 °C 21.5 °C 1002.6 hPa ESE 3.2 km/h 9.7 km/h 88 % 0 mm
02:40 23.6 °C 21.5 °C 1002.6 hPa SE 3.2 km/h 9.7 km/h 88 % 0 mm
02:45 23.6 °C 21.5 °C 1002.6 hPa SE 1.6 km/h 8 km/h 88 % 0 mm
02:50 23.7 °C 21.6 °C 1002.6 hPa SE 3.2 km/h 6.4 km/h 88 % 0 mm
02:55 23.7 °C 21.6 °C 1002.6 hPa ESE 1.6 km/h 8 km/h 88 % 0 mm
03:00 23.7 °C 21.8 °C 1002.6 hPa ESE 4.8 km/h 8 km/h 89 % 0 mm
03:05 23.8 °C 21.9 °C 1002.6 hPa SSE 3.2 km/h 11.3 km/h 89 % 0 mm
03:10 23.8 °C 21.9 °C 1002.3 hPa SSE 3.2 km/h 11.3 km/h 89 % 0 mm
03:15 23.8 °C 21.9 °C 1002.3 hPa East 11.3 km/h 11.3 km/h 89 % 0 mm
03:20 23.9 °C 22 °C 1002.3 hPa SSE 4.8 km/h 11.3 km/h 89 % 0 mm
03:26 23.9 °C 22 °C 1002.3 hPa SSE 4.8 km/h 11.3 km/h 89 % 0 mm
03:31 23.9 °C 22 °C 1002.3 hPa SSE 6.4 km/h 12.9 km/h 89 % 0 mm
03:36 23.9 °C 22 °C 1002.3 hPa SSE 4.8 km/h 14.5 km/h 89 % 0 mm
03:41 23.9 °C 22.2 °C 1002.3 hPa SE 4.8 km/h 14.5 km/h 90 % 0 mm
03:46 24 °C 22.3 °C 1002.3 hPa SE 4.8 km/h 14.5 km/h 90 % 0 mm
03:51 24 °C 22.3 °C 1002.3 hPa SSE 4.8 km/h 14.5 km/h 90 % 0 mm
03:56 24.1 °C 22.4 °C 1002.3 hPa SSW 3.2 km/h 12.9 km/h 90 % 0 mm
04:01 24.1 °C 22.4 °C 1002.3 hPa SE 4.8 km/h 12.9 km/h 90 % 0 mm
04:06 24.1 °C 22.4 °C 1002.3 hPa SSE 1.6 km/h 12.9 km/h 90 % 0 mm
04:11 24.1 °C 22.4 °C 1002.3 hPa East 4.8 km/h 11.3 km/h 90 % 0 mm
04:16 24.1 °C 22.4 °C 1002.3 hPa ESE 8 km/h 11.3 km/h 90 % 0 mm
04:21 24.2 °C 22.5 °C 1002.3 hPa South 4.8 km/h 12.9 km/h 90 % 0 mm
04:25 24.2 °C 22.5 °C 1002.3 hPa SSW 4.8 km/h 12.9 km/h 90 % 0 mm
04:41 24.3 °C 22.6 °C 1002.3 hPa ESE 3.2 km/h 12.9 km/h 90 % 0 mm
04:46 24.3 °C 22.6 °C 1002.3 hPa SSE 8 km/h 12.9 km/h 90 % 0 mm
04:51 24.3 °C 22.6 °C 1002.3 hPa SE 4.8 km/h 16.1 km/h 90 % 0 mm
05:01 24.4 °C 22.7 °C 1002.6 hPa SSE 4.8 km/h 16.1 km/h 90 % 0 mm
05:06 24.4 °C 22.7 °C 1002.6 hPa SSE 11.3 km/h 14.5 km/h 90 % 0 mm
05:11 24.4 °C 22.7 °C 1002.3 hPa SE 11.3 km/h 14.5 km/h 90 % 0 mm
05:16 24.5 °C 22.7 °C 1002.3 hPa SSE 4.8 km/h 14.5 km/h 90 % 0 mm
05:21 24.6 °C 22.7 °C 1002.3 hPa SSW 4.8 km/h 14.5 km/h 89 % 0 mm
05:26 24.6 °C 22.7 °C 1002.6 hPa SE 3.2 km/h 16.1 km/h 89 % 0 mm
05:31 24.6 °C 22.7 °C 1002.3 hPa SSE 3.2 km/h 16.1 km/h 89 % 0 mm
05:36 24.6 °C 22.7 °C 1002.3 hPa SSE 8 km/h 16.1 km/h 89 % 0 mm
05:41 24.6 °C 22.7 °C 1002.3 hPa SE 8 km/h 17.7 km/h 89 % 0 mm
05:46 24.7 °C 22.6 °C 1002.3 hPa SSE 9.7 km/h 17.7 km/h 88 % 0 mm
05:51 24.7 °C 22.6 °C 1002.3 hPa SE 6.4 km/h 17.7 km/h 88 % 0 mm
05:56 24.7 °C 22.6 °C 1002.6 hPa South 12.9 km/h 17.7 km/h 88 % 0 mm
06:01 24.7 °C 22.8 °C 1002.6 hPa SSE 17.7 km/h 17.7 km/h 89 % 0 mm
06:06 24.7 °C 22.6 °C 1002.3 hPa South 11.3 km/h 22.5 km/h 88 % 0 mm
06:11 24.7 °C 22.6 °C 1002.6 hPa South 16.1 km/h 22.5 km/h 88 % 0 mm
06:16 24.7 °C 22.4 °C 1002.6 hPa South 9.7 km/h 22.5 km/h 87 % 0 mm
06:21 24.8 °C 22.7 °C 1002.6 hPa SSE 4.8 km/h 20.9 km/h 88 % 0 mm
06:26 24.8 °C 22.7 °C 1002.6 hPa SSW 12.9 km/h 20.9 km/h 88 % 0 mm
06:31 24.8 °C 22.7 °C 1002.6 hPa ESE 4.8 km/h 19.3 km/h 88 % 0 mm
06:36 24.8 °C 22.7 °C 1002.9 hPa SSW 9.7 km/h 19.3 km/h 88 % 0 mm
06:41 24.8 °C 22.7 °C 1002.9 hPa South 4.8 km/h 19.3 km/h 88 % 0 mm
06:46 24.8 °C 22.5 °C 1002.9 hPa SSW 6.4 km/h 19.3 km/h 87 % 0 mm
06:51 24.8 °C 22.5 °C 1002.9 hPa SSE 14.5 km/h 19.3 km/h 87 % 0 mm
06:56 24.9 °C 22.6 °C 1002.9 hPa SSE 11.3 km/h 20.9 km/h 87 % 0 mm
07:06 25 °C 22.7 °C 1003.3 hPa East 9.7 km/h 20.9 km/h 87 % 0 mm
07:11 25 °C 22.7 °C 1003.3 hPa ESE 3.2 km/h 20.9 km/h 87 % 0 mm
07:16 25 °C 22.7 °C 1003.3 hPa SSE 11.3 km/h 16.1 km/h 87 % 0 mm
07:21 25.1 °C 22.8 °C 1003.3 hPa SSE 12.9 km/h 16.1 km/h 87 % 0 mm
07:26 25.1 °C 22.8 °C 1003.3 hPa SSW 8 km/h 24.1 km/h 87 % 0 mm
07:31 25.1 °C 22.8 °C 1003.6 hPa SSE 6.4 km/h 24.1 km/h 87 % 0 mm
07:36 25.1 °C 22.8 °C 1003.6 hPa SSE 9.7 km/h 24.1 km/h 87 % 0 mm
07:41 25.1 °C 22.8 °C 1003.6 hPa SE 12.9 km/h 17.7 km/h 87 % 0 mm
07:46 25.2 °C 22.9 °C 1003.6 hPa South 9.7 km/h 17.7 km/h 87 % 0 mm
07:51 25.3 °C 23.2 °C 1003.6 hPa South 9.7 km/h 17.7 km/h 88 % 0 mm
07:56 25.3 °C 23 °C 1003.6 hPa SE 9.7 km/h 17.7 km/h 87 % 0 mm
08:01 25.3 °C 23 °C 1003.6 hPa ESE 12.9 km/h 17.7 km/h 87 % 0 mm
08:06 25.3 °C 23 °C 1003.6 hPa South 9.7 km/h 19.3 km/h 87 % 0 mm
08:16 25.4 °C 23.1 °C 1003.9 hPa SSE 16.1 km/h 22.5 km/h 87 % 0 mm
08:21 25.5 °C 23.2 °C 1003.9 hPa SSE 11.3 km/h 27.4 km/h 87 % 0 mm
08:26 25.6 °C 23.3 °C 1003.9 hPa SE 12.9 km/h 27.4 km/h 87 % 0 mm
08:31 25.7 °C 23.4 °C 1003.9 hPa SSW 11.3 km/h 27.4 km/h 87 % 0 mm
08:36 25.8 °C 23.3 °C 1003.9 hPa SE 12.9 km/h 19.3 km/h 86 % 0 mm
08:41 25.9 °C 23.4 °C 1003.9 hPa SSE 9.7 km/h 19.3 km/h 86 % 0 mm
08:46 26 °C 23.5 °C 1003.9 hPa SSE 17.7 km/h 22.5 km/h 86 % 0 mm
08:51 26.1 °C 23.4 °C 1003.9 hPa SSE 6.4 km/h 22.5 km/h 85 % 0 mm
08:56 26.3 °C 23.6 °C 1003.9 hPa SE 6.4 km/h 22.5 km/h 85 % 0 mm
09:01 26.4 °C 23.5 °C 1003.9 hPa SE 16.1 km/h 24.1 km/h 84 % 0 mm
09:06 26.5 °C 23.6 °C 1003.9 hPa South 11.3 km/h 24.1 km/h 84 % 0 mm
09:11 26.6 °C 23.7 °C 1003.9 hPa SSE 16.1 km/h 27.4 km/h 84 % 0 mm
09:16 26.6 °C 23.7 °C 1003.9 hPa SE 19.3 km/h 27.4 km/h 84 % 0 mm
09:26 26.6 °C 23.5 °C 1003.9 hPa SSE 12.9 km/h 22.5 km/h 83 % 0 mm
09:31 26.7 °C 23.4 °C 1003.9 hPa ESE 8 km/h 22.5 km/h 82 % 0 mm
09:36 26.8 °C 23.5 °C 1003.9 hPa South 12.9 km/h 25.7 km/h 82 % 0 mm
09:41 27 °C 23.5 °C 1004.3 hPa South 11.3 km/h 32.2 km/h 81 % 0 mm
09:46 27.1 °C 23.3 °C 1004.3 hPa East 19.3 km/h 32.2 km/h 80 % 0 mm
09:51 27.3 °C 23.3 °C 1003.9 hPa SE 9.7 km/h 32.2 km/h 79 % 0 mm
09:56 27.3 °C 23.3 °C 1003.9 hPa SSE 9.7 km/h 27.4 km/h 79 % 0 mm
10:01 27.6 °C 23.6 °C 1003.9 hPa South 17.7 km/h 27.4 km/h 79 % 0 mm
10:06 27.8 °C 23.4 °C 1003.9 hPa SSE 11.3 km/h 25.7 km/h 77 % 0 mm
10:11 27.9 °C 23.5 °C 1003.9 hPa ESE 11.3 km/h 29 km/h 77 % 0 mm
10:16 28.1 °C 23.5 °C 1003.9 hPa SSE 11.3 km/h 29 km/h 76 % 0 mm
10:21 28.2 °C 23.6 °C 1004.3 hPa SSE 14.5 km/h 29 km/h 76 % 0 mm
10:24 28.3 °C 23.2 °C 1004.3 hPa SE 11.3 km/h 29 km/h 74 % 0 mm
10:29 28.6 °C 23.5 °C 1004.6 hPa SE 14.5 km/h 27.4 km/h 74 % 0 mm
10:34 28.5 °C 23.6 °C 1004.6 hPa SSE 11.3 km/h 27.4 km/h 75 % 0 mm
10:39 28.7 °C 23.8 °C 1004.6 hPa SSE 11.3 km/h 27.4 km/h 75 % 0 mm
10:44 28.8 °C 23.5 °C 1004.6 hPa SE 9.7 km/h 25.7 km/h 73 % 0 mm
10:49 29.1 °C 24 °C 1004.6 hPa ESE 11.3 km/h 27.4 km/h 74 % 0 mm
10:54 29.2 °C 23.9 °C 1004.6 hPa ESE 12.9 km/h 27.4 km/h 73 % 0 mm
10:59 29.3 °C 24 °C 1004.6 hPa SSE 16.1 km/h 27.4 km/h 73 % 0 mm
11:04 29.3 °C 23.7 °C 1005 hPa SSE 14.5 km/h 24.1 km/h 72 % 0 mm
11:09 29.4 °C 23.8 °C 1005 hPa South 11.3 km/h 24.1 km/h 72 % 0 mm
11:14 29.6 °C 24 °C 1005 hPa SSW 12.9 km/h 29 km/h 72 % 0 mm
11:19 29.7 °C 23.9 °C 1005 hPa SSW 6.4 km/h 29 km/h 71 % 0 mm
11:24 29.8 °C 23.7 °C 1005 hPa South 19.3 km/h 29 km/h 70 % 0 mm
11:29 29.9 °C 24.1 °C 1005 hPa SSE 17.7 km/h 24.1 km/h 71 % 0 mm
11:34 30.1 °C 24 °C 1005 hPa South 9.7 km/h 24.1 km/h 70 % 0 mm
11:39 30.1 °C 24.5 °C 1005 hPa SSW 9.7 km/h 24.1 km/h 72 % 0 mm
11:44 30.2 °C 23.9 °C 1005 hPa SSW 9.7 km/h 24.1 km/h 69 % 0 mm
11:49 30.2 °C 23.9 °C 1005 hPa SSE 20.9 km/h 22.5 km/h 69 % 0 mm
11:54 30.2 °C 24.1 °C 1005 hPa SSW 9.7 km/h 22.5 km/h 70 % 0 mm
11:59 30.3 °C 24 °C 1004.6 hPa ESE 11.3 km/h 30.6 km/h 69 % 0 mm
12:04 30.4 °C 24.5 °C 1004.6 hPa South 14.5 km/h 30.6 km/h 71 % 0 mm
12:09 30.6 °C 24.3 °C 1004.6 hPa South 14.5 km/h 30.6 km/h 69 % 0 mm
12:14 30.7 °C 24.1 °C 1004.6 hPa SE 12.9 km/h 24.1 km/h 68 % 0 mm
12:19 30.6 °C 24 °C 1004.6 hPa South 19.3 km/h 24.1 km/h 68 % 0 mm
12:24 30.7 °C 24.1 °C 1004.6 hPa ESE 8 km/h 24.1 km/h 68 % 0 mm
12:29 30.9 °C 24.3 °C 1004.6 hPa ESE 19.3 km/h 24.1 km/h 68 % 0 mm
12:34 31.1 °C 24.7 °C 1004.6 hPa SSE 9.7 km/h 24.1 km/h 69 % 0 mm
12:39 31.1 °C 24.2 °C 1004.6 hPa South 20.9 km/h 24.1 km/h 67 % 0 mm
12:44 31.1 °C 24.5 °C 1004.6 hPa ESE 8 km/h 27.4 km/h 68 % 0 mm
12:49 31.2 °C 24.3 °C 1004.3 hPa SSE 14.5 km/h 27.4 km/h 67 % 0 mm
12:54 31.2 °C 24.6 °C 1004.3 hPa SE 12.9 km/h 27.4 km/h 68 % 0 mm
12:59 31.2 °C 24.6 °C 1004.3 hPa SE 22.5 km/h 25.7 km/h 68 % 0 mm
13:04 31.2 °C 24.1 °C 1004.3 hPa SE 12.9 km/h 29 km/h 66 % 0 mm
13:09 31.1 °C 24.2 °C 1004.3 hPa ESE 20.9 km/h 30.6 km/h 67 % 0 mm
13:14 31.2 °C 24.1 °C 1003.9 hPa South 12.9 km/h 30.6 km/h 66 % 0 mm
13:19 31.3 °C 24.2 °C 1003.9 hPa SE 11.3 km/h 30.6 km/h 66 % 0 mm
13:24 31.5 °C 24.4 °C 1003.9 hPa SSE 8 km/h 27.4 km/h 66 % 0 mm
13:29 31.7 °C 24.6 °C 1003.9 hPa SSW 12.9 km/h 27.4 km/h 66 % 0 mm
13:34 31.8 °C 24.4 °C 1003.9 hPa SSE 8 km/h 27.4 km/h 65 % 0 mm
13:39 31.8 °C 24.4 °C 1003.9 hPa SE 16.1 km/h 27.4 km/h 65 % 0 mm
13:44 31.7 °C 24.3 °C 1003.6 hPa SE 17.7 km/h 27.4 km/h 65 % 0 mm
13:49 31.9 °C 24.2 °C 1003.6 hPa ESE 17.7 km/h 27.4 km/h 64 % 0 mm
13:54 31.9 °C 24 °C 1003.6 hPa SSW 9.7 km/h 25.7 km/h 63 % 0 mm
13:59 32.1 °C 24.4 °C 1003.6 hPa South 11.3 km/h 27.4 km/h 64 % 0 mm
14:04 32.2 °C 24.5 °C 1003.6 hPa SE 9.7 km/h 29 km/h 64 % 0 mm
14:09 32.3 °C 24.4 °C 1003.6 hPa ESE 19.3 km/h 29 km/h 63 % 0 mm
14:14 32.2 °C 24.3 °C 1003.6 hPa SSE 12.9 km/h 29 km/h 63 % 0 mm
14:19 32.1 °C 24.4 °C 1003.6 hPa ESE 14.5 km/h 27.4 km/h 64 % 0 mm
14:24 32.2 °C 24.5 °C 1003.6 hPa SE 17.7 km/h 29 km/h 64 % 0 mm
14:29 32.3 °C 24.6 °C 1003.6 hPa SE 19.3 km/h 29 km/h 64 % 0 mm
14:34 32.4 °C 24.2 °C 1003.3 hPa SSW 12.9 km/h 29 km/h 62 % 0 mm
14:39 32.7 °C 24.7 °C 1003.3 hPa ESE 11.3 km/h 24.1 km/h 63 % 0 mm
14:44 32.7 °C 24.2 °C 1003.3 hPa SSE 22.5 km/h 24.1 km/h 61 % 0 mm
14:49 32.3 °C 24.1 °C 1003.3 hPa ESE 17.7 km/h 27.4 km/h 62 % 0 mm
14:54 32.3 °C 24.4 °C 1002.9 hPa ESE 14.5 km/h 30.6 km/h 63 % 0 mm
14:59 32.4 °C 24.7 °C 1002.9 hPa SSE 12.9 km/h 30.6 km/h 64 % 0 mm
15:04 32.3 °C 24.4 °C 1002.9 hPa South 12.9 km/h 30.6 km/h 63 % 0 mm
15:09 32.3 °C 24.4 °C 1002.9 hPa SSE 8 km/h 29 km/h 63 % 0 mm
15:14 32.4 °C 24.4 °C 1002.9 hPa ESE 20.9 km/h 29 km/h 63 % 0 mm
15:19 32.4 °C 24.4 °C 1002.9 hPa SE 9.7 km/h 29 km/h 63 % 0 mm
15:24 32.3 °C 24.4 °C 1002.9 hPa SE 24.1 km/h 27.4 km/h 63 % 0 mm
15:29 32.3 °C 24.6 °C 1002.9 hPa SSE 20.9 km/h 30.6 km/h 64 % 0 mm
15:34 32.5 °C 24.5 °C 1002.6 hPa South 14.5 km/h 32.2 km/h 63 % 0 mm
15:39 32.3 °C 24.4 °C 1002.6 hPa SE 22.5 km/h 32.2 km/h 63 % 0 mm
15:44 32.3 °C 24.6 °C 1002.6 hPa SSE 8 km/h 32.2 km/h 64 % 0 mm
15:49 32.3 °C 24.6 °C 1002.6 hPa SSE 12.9 km/h 29 km/h 64 % 0 mm
15:54 32.4 °C 24.7 °C 1002.6 hPa South 12.9 km/h 27.4 km/h 64 % 0 mm
15:59 32.4 °C 24.4 °C 1002.6 hPa SSE 9.7 km/h 29 km/h 63 % 0 mm
16:04 32.4 °C 25 °C 1002.3 hPa SSE 22.5 km/h 29 km/h 65 % 0 mm
16:09 32.6 °C 24.9 °C 1002.6 hPa SSE 16.1 km/h 29 km/h 64 % 0 mm
16:14 32.2 °C 24.5 °C 1002.6 hPa SE 9.7 km/h 27.4 km/h 64 % 0 mm
16:19 32.2 °C 24.5 °C 1002.6 hPa South 16.1 km/h 27.4 km/h 64 % 0 mm
16:24 32.1 °C 24.7 °C 1002.6 hPa SE 12.9 km/h 29 km/h 65 % 0 mm
16:29 31.9 °C 24.8 °C 1002.3 hPa SE 20.9 km/h 29 km/h 66 % 0 mm
16:34 31.9 °C 24.5 °C 1002.3 hPa SE 16.1 km/h 30.6 km/h 65 % 0 mm
16:39 31.8 °C 24.9 °C 1002.3 hPa SE 16.1 km/h 33.8 km/h 67 % 0 mm
16:44 31.7 °C 24.6 °C 1002.3 hPa ESE 20.9 km/h 35.4 km/h 66 % 0 mm
16:49 31.6 °C 24.7 °C 1002.3 hPa ESE 19.3 km/h 35.4 km/h 67 % 0 mm
16:54 31.5 °C 24.6 °C 1002.3 hPa SE 20.9 km/h 35.4 km/h 67 % 0 mm
16:59 31.4 °C 24.5 °C 1002.3 hPa SSE 14.5 km/h 33.8 km/h 67 % 0 mm
17:05 31.3 °C 24.7 °C 1002.3 hPa SE 16.1 km/h 33.8 km/h 68 % 0 mm
17:10 31.3 °C 24.7 °C 1002.3 hPa East 16.1 km/h 33.8 km/h 68 % 0 mm
17:15 31.1 °C 24.5 °C 1001.9 hPa ESE 14.5 km/h 33.8 km/h 68 % 0 mm
17:20 30.8 °C 24.4 °C 1002.3 hPa ESE 22.5 km/h 33.8 km/h 69 % 0 mm
17:25 30.8 °C 24.7 °C 1002.3 hPa ESE 4.8 km/h 33.8 km/h 70 % 0 mm
17:30 30.9 °C 24.5 °C 1002.3 hPa SSE 11.3 km/h 30.6 km/h 69 % 0 mm
17:35 30.7 °C 24.4 °C 1002.3 hPa SW 14.5 km/h 30.6 km/h 69 % 0 mm
17:40 30.4 °C 24.3 °C 1002.3 hPa SSE 12.9 km/h 30.6 km/h 70 % 0 mm
17:45 30.3 °C 24.4 °C 1002.3 hPa SE 6.4 km/h 30.6 km/h 71 % 0 mm
17:50 30.3 °C 24.4 °C 1002.3 hPa ESE 17.7 km/h 30.6 km/h 71 % 0 mm
17:55 30.2 °C 24.4 °C 1002.3 hPa SE 11.3 km/h 29 km/h 71 % 0 mm
18:00 30.2 °C 24.4 °C 1002.3 hPa SE 12.9 km/h 29 km/h 71 % 0 mm
18:05 30.2 °C 24.6 °C 1002.6 hPa SSE 14.5 km/h 30.6 km/h 72 % 0 mm
18:10 30.2 °C 24.6 °C 1002.6 hPa South 16.1 km/h 30.6 km/h 72 % 0 mm
18:15 30 °C 24.4 °C 1002.6 hPa SE 14.5 km/h 32.2 km/h 72 % 0 mm
18:20 29.8 °C 24.4 °C 1002.6 hPa SE 17.7 km/h 32.2 km/h 73 % 0 mm
18:25 29.7 °C 24.3 °C 1002.6 hPa SSE 16.1 km/h 32.2 km/h 73 % 0 mm
18:30 29.6 °C 24.5 °C 1002.6 hPa ESE 14.5 km/h 29 km/h 74 % 0 mm
18:35 29.4 °C 24.3 °C 1002.9 hPa SSE 8 km/h 30.6 km/h 74 % 0 mm
18:40 29.4 °C 24.3 °C 1002.9 hPa ESE 16.1 km/h 32.2 km/h 74 % 0 mm
18:45 29.3 °C 24.2 °C 1002.9 hPa SSE 8 km/h 32.2 km/h 74 % 0 mm
18:50 29.2 °C 24.1 °C 1002.9 hPa ESE 16.1 km/h 33.8 km/h 74 % 0 mm
18:55 29.1 °C 24.2 °C 1002.9 hPa SSE 16.1 km/h 33.8 km/h 75 % 0 mm
19:00 28.9 °C 24 °C 1002.9 hPa ESE 16.1 km/h 33.8 km/h 75 % 0 mm
19:05 28.8 °C 23.9 °C 1002.9 hPa SSW 16.1 km/h 30.6 km/h 75 % 0 mm
19:10 28.8 °C 24.1 °C 1002.9 hPa SSE 22.5 km/h 30.6 km/h 76 % 0 mm
19:15 28.7 °C 24 °C 1003.3 hPa ESE 12.9 km/h 27.4 km/h 76 % 0 mm
19:20 28.7 °C 24 °C 1003.3 hPa South 14.5 km/h 27.4 km/h 76 % 0 mm
19:25 28.6 °C 23.9 °C 1003.3 hPa SSW 19.3 km/h 27.4 km/h 76 % 0 mm
19:30 28.5 °C 24.1 °C 1003.3 hPa SE 6.4 km/h 25.7 km/h 77 % 0 mm
19:35 28.4 °C 24 °C 1003.3 hPa South 11.3 km/h 27.4 km/h 77 % 0 mm
19:40 28.3 °C 23.9 °C 1003.3 hPa SSE 8 km/h 27.4 km/h 77 % 0 mm
19:45 28.3 °C 23.9 °C 1003.3 hPa SSE 17.7 km/h 27.4 km/h 77 % 0 mm
19:50 28.2 °C 24 °C 1003.6 hPa SSE 8 km/h 25.7 km/h 78 % 0 mm
19:55 28.2 °C 24 °C 1003.6 hPa SE 9.7 km/h 25.7 km/h 78 % 0 mm
20:00 28.1 °C 23.9 °C 1003.6 hPa SE 12.9 km/h 25.7 km/h 78 % 0 mm
20:05 28.1 °C 24.1 °C 1003.6 hPa SE 16.1 km/h 25.7 km/h 79 % 0 mm
20:10 27.9 °C 23.9 °C 1003.6 hPa SE 24.1 km/h 25.7 km/h 79 % 0 mm
20:15 27.9 °C 24.1 °C 1003.6 hPa SE 17.7 km/h 25.7 km/h 80 % 0 mm
20:20 27.8 °C 24 °C 1003.6 hPa SW 11.3 km/h 25.7 km/h 80 % 0 mm
20:25 27.8 °C 24 °C 1003.9 hPa ESE 22.5 km/h 24.1 km/h 80 % 0 mm
20:30 27.7 °C 23.9 °C 1003.9 hPa SSE 17.7 km/h 24.1 km/h 80 % 0 mm
20:35 27.6 °C 23.8 °C 1003.9 hPa SE 9.7 km/h 22.5 km/h 80 % 0 mm
20:40 27.6 °C 23.8 °C 1003.9 hPa SSE 8 km/h 25.7 km/h 80 % 0 mm
20:45 27.6 °C 23.8 °C 1004.3 hPa SE 17.7 km/h 25.7 km/h 80 % 0 mm
20:50 27.5 °C 23.7 °C 1004.3 hPa SSE 9.7 km/h 29 km/h 80 % 0 mm
20:55 27.5 °C 23.9 °C 1004.3 hPa SE 6.4 km/h 29 km/h 81 % 0 mm
21:00 27.4 °C 23.8 °C 1004.3 hPa SE 11.3 km/h 29 km/h 81 % 0 mm
21:05 27.4 °C 24.1 °C 1004.3 hPa ESE 11.3 km/h 24.1 km/h 82 % 0 mm
21:10 27.4 °C 24.1 °C 1004.3 hPa SSE 9.7 km/h 24.1 km/h 82 % 0 mm
21:15 27.3 °C 24 °C 1004.3 hPa SE 19.3 km/h 25.7 km/h 82 % 0 mm
21:20 27.3 °C 24 °C 1004.3 hPa South 11.3 km/h 27.4 km/h 82 % 0 mm
21:22 27.3 °C 24 °C 1004.3 hPa SE 16.1 km/h 27.4 km/h 82 % 0 mm
21:27 27.2 °C 24.1 °C 1004.6 hPa South 12.9 km/h 27.4 km/h 83 % 0 mm
21:32 27.2 °C 24.1 °C 1004.6 hPa SSW 11.3 km/h 27.4 km/h 83 % 0 mm
21:37 27.3 °C 24.2 °C 1004.6 hPa SE 8 km/h 24.1 km/h 83 % 0 mm
21:42 27.2 °C 24.3 °C 1004.6 hPa ESE 11.3 km/h 24.1 km/h 84 % 0 mm
21:47 27.2 °C 24.3 °C 1004.6 hPa ESE 9.7 km/h 24.1 km/h 84 % 0 mm
21:52 27.2 °C 24.3 °C 1005 hPa SSW 9.7 km/h 24.1 km/h 84 % 0 mm
21:57 27.2 °C 24.3 °C 1005 hPa SE 9.7 km/h 24.1 km/h 84 % 0 mm
22:02 27.2 °C 24.3 °C 1005 hPa SE 14.5 km/h 24.1 km/h 84 % 0 mm
22:07 27.2 °C 24.3 °C 1005 hPa SE 9.7 km/h 25.7 km/h 84 % 0 mm
22:12 27.2 °C 24.3 °C 1005 hPa ESE 12.9 km/h 25.7 km/h 84 % 0 mm
22:17 27.2 °C 24.3 °C 1005 hPa SE 9.7 km/h 25.7 km/h 84 % 0 mm
22:22 27.2 °C 24.3 °C 1005 hPa ESE 12.9 km/h 25.7 km/h 84 % 0 mm
22:27 27.1 °C 24.2 °C 1005 hPa East 12.9 km/h 25.7 km/h 84 % 0 mm
22:32 27.1 °C 24.2 °C 1005 hPa SE 16.1 km/h 25.7 km/h 84 % 0 mm
22:42 27.1 °C 24.2 °C 1005 hPa SE 11.3 km/h 25.7 km/h 84 % 0 mm
22:47 27.1 °C 24.4 °C 1005 hPa SE 14.5 km/h 25.7 km/h 85 % 0 mm
22:52 27.2 °C 24.5 °C 1005 hPa SE 17.7 km/h 27.4 km/h 85 % 0 mm
22:57 27.2 °C 24.5 °C 1005 hPa ESE 9.7 km/h 27.4 km/h 85 % 0 mm
23:02 27.1 °C 24.4 °C 1005 hPa SSE 11.3 km/h 27.4 km/h 85 % 0 mm
23:07 27.1 °C 24.2 °C 1005 hPa SSE 12.9 km/h 29 km/h 84 % 0 mm
23:12 27.2 °C 24.5 °C 1005 hPa East 20.9 km/h 29 km/h 85 % 0 mm
23:17 27.1 °C 24.4 °C 1005 hPa SE 11.3 km/h 29 km/h 85 % 0 mm
23:22 27.1 °C 24.4 °C 1005 hPa SSE 4.8 km/h 30.6 km/h 85 % 0 mm
23:27 27.1 °C 24.4 °C 1005 hPa SE 11.3 km/h 30.6 km/h 85 % 0 mm
23:33 27.1 °C 24.4 °C 1005 hPa SSE 20.9 km/h 30.6 km/h 85 % 0 mm
23:38 27.1 °C 24.4 °C 1005 hPa ESE 12.9 km/h 29 km/h 85 % 0 mm
23:43 27.1 °C 24.4 °C 1005 hPa SSW 12.9 km/h 29 km/h 85 % 0 mm
23:48 27 °C 24.3 °C 1005 hPa SE 14.5 km/h 29 km/h 85 % 0 mm
23:53 26.9 °C 24.2 °C 1004.6 hPa SSE 16.1 km/h 29 km/h 85 % 0 mm
23:58 26.9 °C 24.2 °C 1005 hPa SSE 14.5 km/h 25.7 km/h 85 % 0 mm
Spring, Texas: Villages of Bridgestone
Compliments of Weather Underground - 2.75 mb

Script developed by  Jim McMurry - jmcmurry@mwt.net Adapted for the template by  Wim van der Kuil - Leuven-Template.eu

You find our weather info also at:

UK Metoffice

WeatherCloud

Weather Underground

Mid-South Weather Network

AWEKAS

Citizen Weather Observer Program (CWOP)

HAMweather, WeatherForYou, PWS Weather

Equipment we use:

Weather-station
Davis Vantage Vue

Weather-program
Meteohub

Weather-server
Debian 7.9 x86 (Guest)

Provider
DreamHost

Davis Vantage Vue

Meteohub

Debian 7.9 x86 (Guest)

DreamHost